Погода в Витебске

Погода в Витебске : погода сейчас, прогноз погоды и архив. Всё, что Вы хотите узнать о погоде в Витебске!

Поиск расширенной информации на нашем сайте:

Полезная информация:

Другие новости

Новости СМИ2

Главная страница сайта

Новости сайта

03.07.2017

Напоминаем, что на нашем специализированном сайте Метеоцентр.Азия вы можете получить высокодетализированные автоматические прогнозы погоды по пунктам России, СНГ и мира в авиационном формате (включающие направление и скорость ветра, видимость, явления погоды, количество и форму облачности, нижнюю и верхнюю границу облачности).

Рекомендуем:

Погода в Витебске - сегодня

Время (UTC), дата Ветер
(°,м/с) 
Видим.   Явления Облачность Т
(°С)
Тd
(°С)
f(%) Тe
(°С)
Pmin
(гПа)
dP
(гПа)
Po
(мм)
O2
(г/м3)
Тmin Tmax R s Состояние
почвы
21 18.05.19 тихо ()   23000 м    3/0 верхняя 
[Ci fib]
+12.2 +8.4 78 +12  1017.7  0.3  747  287           
00 19.05.19 тихо ()   27000 м    5/0 верхняя 
[Ci fib]
+11.3 +8 80 +11  1017.5  -0.2  747  288           
03 19.05.19 070 (В) 30000 м    8/0 верхняя 
[Ci fib]
+9.7 +6.9 83 +11  1018.2  0.5  748  290           
06 19.05.19 050 (СВ) 30000 м    3/0 верхняя 
[Ci fib]
+19.2 +12.6 66 +26  1017.7  0.3  748  279  +8.6         
09 19.05.19 130 (ЮВ) 35000 м    4/0 верхняя 
[Ci fib]
+24 +6.8 33 +24  1017.3  748  276           
12 19.05.19 170 (Ю) 35000 м    5/1 1000 м верхняя 
[Cu hum|Ci fib]
+24.8 +7.7 34 +25  1016.6  -0.6  747  275           
15 19.05.19 140 (ЮВ) 35000 м    5/1 1000 м верхняя 
[Cu hum|Cc]
+24.8 +7.8 34 +25  1016.3  -0.3  747  275           
18 19.05.19 110 (В) 29000 м    8/0 верхняя 
[Cc]
+21.4 +8.1 42 +21  1016.6  747  278    +25.6       
21 19.05.19 160 (Ю) 22000 м    ясно 
+18.3 +8.4 52 +20  1017.6  0.7  748  281           
00 20.05.19 170 (Ю) 30000 м    6/0 верхняя 
[Cs]
+16.5 +7.4 55 +18  1018.3  0.6  748  283           
03 20.05.19 170 (Ю) 29000 м    6/0 верхняя 
[Ci fib]
+16 +7.2 56 +16  1018.7  0.3  748  284           
06 20.05.19 170 (Ю) 30000 м    4/0 верхняя 
[Ci fib]
+20 +9.8 52 +21  1019.3  0.9  749  280  +15.9         
09 20.05.19 160 (Ю) 26000 м    3/0 верхняя 
[Ci fib]
+23.9 +8.6 38 +24  1018.9  -0.1  749  276           
12 20.05.19 150 (ЮВ) 21000 м    3/3 1000 м 
[Cu hum]
+24.9 +6.9 32 +25  1017.8  -1  748  275           
15 20.05.19 170 (Ю) 30000 м    5/3 1000 м верхняя 
[Sc diur, vesp|Ci sp]
+25.1 +7.5 33 +25  1016.6  -1.1  747  275           
18 20.05.19 120 (ЮВ) 18000 м    3/0 верхняя 
[Ci fib]
+21.3 +8.2 43 +21  1016.1  -0.8  747  278    +25.7       
21 20.05.19 тихо ()   27000 м    ясно 
+18.3 +8.4 52 +18  1016.7  0.3  747  281           
00 21.05.19 170 (Ю) 27000 м    3/0 средняя 
[Ac trans]
+17.7 +7.1 50 +18  1016.6  -0.1  747  281           
03 21.05.19 170 (Ю) 25000 м    6/0 средняя, верхняя 
[Ac trans|Cc]
+16.1 +7 55 +16  1016.3  -0.4  747  283           
06 21.05.19 170 (Ю) 22000 м    8/0 верхняя 
[Cs]
+18.8 +7.8 49 +19  1016.1  747  280  +15.7         
09 21.05.19 170 (Ю) 23000 м    4/0 верхняя 
[Ci fib]
+24.3 +8.7 37 +24  1014.8  -0.8  746  275           
12 21.05.19 160 (Ю) 21000 м    1/1 1000 м 
[Cu hum]
+25.9 +7.8 32 +26  1013.6  -1.1  745  273           
15 21.05.19 170 (Ю) 23000 м    3/3 1000 м 
[Cu hum]
+25.3 +8.2 34 +25  1012  -1.6  744  273           
18 21.05.19 170 (Ю) 30000 м    5/0 средняя, верхняя 
[Ac trans|Ci fib]
+21.8 +9.5 45 +22  1011.6  -0.7  744  276    +25.9       
21 21.05.19 180 (Ю) 25000 м    ясно 
+19 +9.3 53 +20  1012  0.2  744  279           
Время (UTC), дата Ветер
(°,м/с) 
Видим.   Явления Облачность Т
(°С)
Тd
(°С)
f(%) Тe
(°С)
Pmin
(гПа)
dP
(гПа)
Po
(мм)
O2
(г/м3)
Тmin Tmax R s Состояние
почвы

Для получения пояснительной информации подведите курсор к названию столбца.

ПОГОДА в Витебске - архив

Всё, что Вы хотите узнать о погоде в Витебске - удобно и подробно!

Выберите нужную дату (начиная с 1 января 2018* года) и нажмите кнопку "Найти".
Будут отображены архивные сводки погоды по пункту Витебск, начиная с указанной даты.


Отображать данные в формате CSV (для использования в таблицах Excel)


Внимание! Наш архив погоды предназначен исключительно для личного некоммерческого использования в познавательных целях. Если Вам необходимы официальные справки о состоянии погоды (для производственных, юридических, коммерческих и т.п. целей), обращайтесь в органы Росгидромета.

*Примечание: данная дата относится к архиву по метеостанциям СССР (Россия, СНГ, Балтия).
Архив по метеостанциям Зарубежной Европы и Азии (кроме Китая) хранится 10 дней, по другим регионам земного шара (Китай, Африка, Америка, Австралия, Океания) - 1 день.

Витебск - район местоположения метеостанции


Название, широта, долгота, высота метеостанции:
Витебск (город) 55.1°ш. 30.3°д. 170 м над ур. моря [Беларусь]

Дополнительная информация

В oтличие oт бoльшинства пoгoдных сайтoв мы публикуем пoдрoбную метеoинфoрмацию в детальнoм прoфессиoнальнoм фoрмате.

Характеристики температуры и влажнoсти вoздуха измеряются на высoте 2 м в тени вдали oт зданий и деревьев.
Скoрoсть ветра измеряется на высoте 10 м (на урoвне рoста челoвека скoрoсть ветра ниже в 1.5-2 раза). Если метеoстанция нахoдится в гoрoде или в лесу, тo скoрoсть ветра занижена на 2-4 м/с пo сравнению с oткрытым местoм. Скoрoсть ветра над акватoриями крупных рек и oзёр, а также на вершинах хoлмoв на 2-5 м/с выше, чем в oбычных услoвиях.
Атмoсфернoе давление в разных тoчках местнoсти мoжет значительнo oтличаться oт давления на метеoстанции, в зависимoсти oт услoвий рельефа (при пoдъёме на 10 м давление пoнижается примернo на 1 мм рт.ст.).